Zurück zum Katalog

APSTAR 2R

TELSTAR 10

AktivKommunikationGEO
NORAD 25010·PAYLOAD·🇨🇳 China

Gestartet Oct 16, 1997 von Xichang Satellite Launch Center

Loading…

TLE

AktuellSource: Space-Track

Epoche: Sep 14, 2026, 14:21 UTC

1 25010U 97062A   26257.59855597 -.00000299  00000-0  00000-0 0  9998
2 25010  10.9092  46.8959 0007060 278.7927  35.4550  0.99214351105414

Verfolge APSTAR 2R in Echtzeit mit AllMySat

Download on the App Store